Jaffrey, NH

6:29 AM EST on February 24, 2017 (GMT -0500)
Jaffrey Airport-Silver Ranch

Weather History for KAFN - November, 2012

Change the Weather History Date:

Monday, November 5, 2012

  Actual Average Record
Temperature  
Mean Temperature 32 °F -  
Max Temperature 37 °F 47 °F 69 °F (2015)
Min Temperature 24 °F 30 °F 21 °F (2013)
Degree Days  
Heating Degree Days 33    
Moisture  
Dew Point 18 °F    
Average Humidity 57    
Maximum Humidity 75    
Minimum Humidity 41    
Precipitation  
Precipitation 0.00 in - - ()
Sea Level Pressure  
Sea Level Pressure 30.05 in    
Wind  
Wind Speed 4 mph (NNW)    
Max Wind Speed 8 mph    
Max Gust Speed -    
Visibility 10 miles    
Events      
Averages and records for this station are not official NWS values.
T = Trace of Precipitation, MM = Missing Value Source: NWS Daily Summary

Daily Weather History Graph

Daily Weather History Graph

Search for Another Location

Airport or City:

Trip Planner

Search our weather history database for the weather conditions in past years. The results will help you decide how hot, cold, wet, or windy it might be!

Date:

Astronomy

Nov. 05, 2012 Rise Set
Actual Time 6:27 AM EST 4:34 PM EST
Civil Twilight 5:58 AM EST 5:04 PM EST
Nautical Twilight 5:24 AM EST 5:38 PM EST
Astronomical Twilight 4:51 AM EST 6:11 PM EST
Moon 10:09 PM EST (11/5) 11:45 AM EST (11/5)
Length of Visible Light 11h 06m
Length of Day
10h 07m
Waning Gibbous, 63% of the Moon is Illuminated
Nov 5
Waning Gibbous
Nov 6
Last Quarter
Nov 13
New
Nov 20
First Quarter
Nov 28
Full

Hourly Weather History & Observations

Time (EST) Temp. Windchill Dew Point Humidity Pressure Visibility Wind Dir Wind Speed Gust Speed Precip Events Conditions
12:52 AM 33.1 °F 28.7 °F 21.0 °F 61% 29.99 in 10.0 mi Variable 4.6 mph - N/A   Overcast
1:37 AM 32.0 °F 26.4 °F 19.4 °F 60% 29.94 in 10.0 mi Variable 5.8 mph - N/A   Overcast
1:52 AM 33.1 °F 27.7 °F 19.9 °F 59% 29.99 in 10.0 mi Variable 5.8 mph - N/A   Overcast
2:52 AM 32.0 °F 28.7 °F 19.9 °F 61% 29.99 in 10.0 mi Variable 3.5 mph - N/A   Overcast
3:52 AM 32.0 °F 27.5 °F 19.0 °F 59% 29.99 in 10.0 mi North 4.6 mph - N/A   Overcast
4:52 AM 32.0 °F 27.5 °F 19.0 °F 59% 29.99 in 10.0 mi North 4.6 mph - N/A   Overcast
5:52 AM 32.0 °F 25.6 °F 19.0 °F 59% 29.99 in 10.0 mi Variable 6.9 mph - N/A   Overcast
6:52 AM 32.0 °F 24.8 °F 19.0 °F 59% 30.01 in 10.0 mi NNW 8.1 mph - N/A   Overcast
7:52 AM 33.1 °F 28.7 °F 21.0 °F 61% 30.03 in 10.0 mi NW 4.6 mph - N/A   Overcast
8:52 AM 33.1 °F 28.7 °F 21.9 °F 64% 30.04 in 10.0 mi NW 4.6 mph - N/A   Overcast
9:52 AM 34.0 °F 31.0 °F 19.9 °F 56% 30.04 in 10.0 mi Variable 3.5 mph - N/A   Overcast
10:52 AM 35.1 °F 32.2 °F 19.0 °F 52% 30.04 in 10.0 mi Variable 3.5 mph - N/A   Overcast
11:52 AM 36.0 °F 30.3 °F 19.0 °F 50% 30.02 in 10.0 mi Variable 6.9 mph - N/A   Overcast
12:52 PM 35.1 °F 31.0 °F 19.9 °F 54% 30.02 in 10.0 mi North 4.6 mph - N/A   Overcast
1:52 PM 35.1 °F 29.3 °F 18.0 °F 50% 30.02 in 10.0 mi Variable 6.9 mph - N/A   Overcast
2:52 PM 37.9 °F 33.5 °F 16.0 °F 41% 30.02 in 10.0 mi Variable 5.8 mph - N/A   Mostly Cloudy
3:52 PM 35.1 °F 30.1 °F 15.1 °F 44% 30.04 in 10.0 mi North 5.8 mph - N/A   Overcast
4:52 PM 34.0 °F - 16.0 °F 48% 30.06 in 10.0 mi Calm Calm - N/A   Overcast
5:52 PM 32.0 °F 28.7 °F 18.0 °F 56% 30.10 in 10.0 mi Variable 3.5 mph - N/A   Mostly Cloudy
6:52 PM 30.9 °F - 17.1 °F 57% 30.11 in 10.0 mi Calm Calm - N/A   Overcast
7:52 PM 28.9 °F - 16.0 °F 58% 30.13 in 10.0 mi Calm Calm - N/A   Clear
8:52 PM 28.0 °F - 15.1 °F 58% 30.14 in 10.0 mi Calm Calm - N/A   Clear
9:52 PM 28.0 °F - 15.1 °F 58% 30.15 in 10.0 mi Calm Calm - N/A   Clear
10:52 PM 27.0 °F - 12.9 °F 56% 30.15 in 10.0 mi Calm Calm - N/A   Clear
11:52 PM 24.1 °F - 17.1 °F 75% 30.15 in 10.0 mi Calm Calm - N/A   Clear